星链-2556 (STARLINK-2556 )

导读

STARLINK-2556是美国太空探索技术公司(SpaceX)星链(Starlink)星座中的一颗卫星,于2021年4月29日发射入轨,属于星链互联网卫星星座组网的一部分,主要任务是为全球提供低延迟、高速率的宽带互联网服务,依托近地轨道部署,可覆盖偏远地区等网络基础设施匮乏区域。

基本信息
目录编号:
48302
目录名称:
STARLINK-2556
国际标识:
2021-036AC
轨道中心:
EARTH
卫星名称:
星链-2556
卫星全名:
星链-2556 (STARLINK-2556 )
卫星状态:
已陨落 最后检测时间 2024-12-21
发射日期:
2021-04-29 UTC
国别 :
美国 (US)
星等 :
--
轨道信息
数据来源 国际轨道数据
星历时间: 2024-12-21T12:21:55+0800
轨道信息已过期544天
半长轴: 6519.702km
偏心率: 0.0005378
轨道倾角: 53.024°
近地点辐角 260.849°
升交点赤经 263.660°
平近点角 175.381°
近地点: 138.06km
远地点: 145.074km
周期: 87.318分钟
每日圈数: 16.491538
详细信息
固有亮度:
5
最大亮度:
2.5
卫星平台:
Starlink V1.0
覆盖范围:
全球
运营商:
太空探索技术公司
运营商所在国:
美国
制造商(研发单位):
太空探索技术公司
制造商所在国:
美国
使用方式:
暂无
卫星简介
星链(Starlink)计划是由太空探索技术公司(SpaceX)提出的一个巨型低轨卫星互联网星座项目,计划在2019年至2024年间在太空搭建由约1.2万颗卫星组成的“星链”网络,其中1584颗将部署在地球上空550千米处的近地轨道,并从2020年开始工作。该卫星仍在工作。